Year,Month,Day,Hour,Minute,Value (Times are PST for temperature in C)
2018,08,09,00,00,22.40
2018,08,09,00,01,22.40
2018,08,09,00,02,22.40
2018,08,09,00,03,22.40
2018,08,09,00,04,22.40
2018,08,09,00,05,22.40
2018,08,09,00,06,22.30
2018,08,09,00,07,22.30
2018,08,09,00,08,22.20
2018,08,09,00,09,22.20
2018,08,09,00,10,22.10
2018,08,09,00,11,22.10
2018,08,09,00,12,22.10
2018,08,09,00,13,22.00
2018,08,09,00,14,21.90
2018,08,09,00,15,21.90
2018,08,09,00,16,21.80
2018,08,09,00,17,21.70
2018,08,09,00,18,21.70
2018,08,09,00,19,21.70
2018,08,09,00,20,21.60
2018,08,09,00,21,21.60
2018,08,09,00,22,21.60
2018,08,09,00,23,21.50
2018,08,09,00,24,21.50
2018,08,09,00,25,21.50
2018,08,09,00,26,21.40
2018,08,09,00,27,21.40
2018,08,09,00,28,21.40
2018,08,09,00,29,21.30
2018,08,09,00,30,21.30
2018,08,09,00,31,21.20
2018,08,09,00,32,21.20
2018,08,09,00,33,21.10
2018,08,09,00,34,21.10
2018,08,09,00,35,21.10
2018,08,09,00,36,21.10
2018,08,09,00,37,21.10
2018,08,09,00,38,21.00
2018,08,09,00,39,21.00
2018,08,09,00,40,21.00
2018,08,09,00,41,21.00
2018,08,09,00,42,20.90
2018,08,09,00,43,20.90
2018,08,09,00,44,20.90
2018,08,09,00,45,20.90
2018,08,09,00,46,20.90
2018,08,09,00,47,20.90
2018,08,09,00,48,20.90
2018,08,09,00,49,20.90
2018,08,09,00,50,20.90
2018,08,09,00,51,21.00
2018,08,09,00,52,21.00
2018,08,09,00,53,21.00
2018,08,09,00,54,21.00
2018,08,09,00,55,21.00
2018,08,09,00,56,21.00
2018,08,09,00,57,20.90
2018,08,09,00,58,20.90
2018,08,09,00,59,20.90
2018,08,09,01,00,20.90
2018,08,09,01,01,20.90
2018,08,09,01,02,20.80
2018,08,09,01,03,20.80
2018,08,09,01,04,20.80
2018,08,09,01,05,20.80
2018,08,09,01,06,20.80
2018,08,09,01,07,20.80
2018,08,09,01,08,20.80
2018,08,09,01,09,20.80
2018,08,09,01,10,20.80
2018,08,09,01,11,20.80
2018,08,09,01,12,20.80
2018,08,09,01,13,20.80
2018,08,09,01,14,20.80
2018,08,09,01,15,20.80
2018,08,09,01,16,20.80
2018,08,09,01,17,20.80
2018,08,09,01,18,20.80
2018,08,09,01,19,20.70
2018,08,09,01,20,20.70
2018,08,09,01,21,20.70
2018,08,09,01,22,20.70
2018,08,09,01,23,20.70
2018,08,09,01,24,20.60
2018,08,09,01,25,20.60
2018,08,09,01,26,20.60
2018,08,09,01,27,20.60
2018,08,09,01,28,20.70
2018,08,09,01,29,20.70
2018,08,09,01,30,20.60
2018,08,09,01,31,20.60
2018,08,09,01,32,20.60
2018,08,09,01,33,20.60
2018,08,09,01,34,20.60
2018,08,09,01,35,20.60
2018,08,09,01,36,20.60
2018,08,09,01,37,20.60
2018,08,09,01,38,20.60
2018,08,09,01,39,20.60
2018,08,09,01,40,20.50
2018,08,09,01,41,20.50
2018,08,09,01,42,20.60
2018,08,09,01,43,20.60
2018,08,09,01,44,20.60
2018,08,09,01,45,20.60
2018,08,09,01,46,20.60
2018,08,09,01,47,20.60
2018,08,09,01,48,20.60
2018,08,09,01,49,20.50
2018,08,09,01,50,20.50
2018,08,09,01,51,20.40
2018,08,09,01,52,20.30
2018,08,09,01,53,20.30
2018,08,09,01,54,20.20
2018,08,09,01,55,20.20
2018,08,09,01,56,20.20
2018,08,09,01,57,20.20
2018,08,09,01,58,20.20
2018,08,09,01,59,20.20
2018,08,09,02,00,20.20
2018,08,09,02,01,20.30
2018,08,09,02,02,20.30
2018,08,09,02,03,20.30
2018,08,09,02,04,20.30
2018,08,09,02,05,20.30
2018,08,09,02,06,20.30
2018,08,09,02,07,20.30
2018,08,09,02,08,20.30
2018,08,09,02,09,20.20
2018,08,09,02,10,20.20
2018,08,09,02,11,20.20
2018,08,09,02,12,20.20
2018,08,09,02,13,20.20
2018,08,09,02,14,20.20
2018,08,09,02,15,20.20
2018,08,09,02,16,20.20
2018,08,09,02,17,20.20
2018,08,09,02,18,20.10
2018,08,09,02,19,20.10
2018,08,09,02,20,20.10
2018,08,09,02,21,20.00
2018,08,09,02,22,19.90
2018,08,09,02,23,19.90
2018,08,09,02,24,19.90
2018,08,09,02,25,19.80
2018,08,09,02,26,19.80
2018,08,09,02,27,19.90
2018,08,09,02,28,19.90
2018,08,09,02,29,19.90
2018,08,09,02,30,20.00
2018,08,09,02,31,20.00
2018,08,09,02,32,20.10
2018,08,09,02,33,20.00
2018,08,09,02,34,20.10
2018,08,09,02,35,20.10
2018,08,09,02,36,20.20
2018,08,09,02,37,20.20
2018,08,09,02,38,20.20
2018,08,09,02,39,20.20
2018,08,09,02,40,20.20
2018,08,09,02,41,20.20
2018,08,09,02,42,20.20
2018,08,09,02,43,20.20
2018,08,09,02,44,20.10
2018,08,09,02,45,20.10
2018,08,09,02,46,20.10
2018,08,09,02,47,20.10
2018,08,09,02,48,20.00
2018,08,09,02,49,20.00
2018,08,09,02,50,19.90
2018,08,09,02,51,19.90
2018,08,09,02,52,19.80
2018,08,09,02,53,19.80
2018,08,09,02,54,19.80
2018,08,09,02,55,19.80
2018,08,09,02,56,19.80
2018,08,09,02,57,19.80
2018,08,09,02,58,19.80
2018,08,09,02,59,19.80
2018,08,09,03,00,19.80
2018,08,09,03,01,19.80
2018,08,09,03,02,19.70
2018,08,09,03,03,19.70
2018,08,09,03,04,19.70
2018,08,09,03,05,19.70
2018,08,09,03,06,19.70
2018,08,09,03,07,19.70
2018,08,09,03,08,19.70
2018,08,09,03,09,19.70
2018,08,09,03,10,19.70
2018,08,09,03,11,19.70
2018,08,09,03,12,19.70
2018,08,09,03,13,19.70
2018,08,09,03,14,19.70
2018,08,09,03,15,19.70
2018,08,09,03,16,19.70
2018,08,09,03,17,19.60
2018,08,09,03,18,19.60
2018,08,09,03,19,19.50
2018,08,09,03,20,19.50
2018,08,09,03,21,19.50
2018,08,09,03,22,19.50
2018,08,09,03,23,19.50
2018,08,09,03,24,19.40
2018,08,09,03,25,19.40
2018,08,09,03,26,19.40
2018,08,09,03,27,19.40
2018,08,09,03,28,19.40
2018,08,09,03,29,19.40
2018,08,09,03,30,19.40
2018,08,09,03,31,19.40
2018,08,09,03,32,19.40
2018,08,09,03,33,19.40
2018,08,09,03,34,19.30
2018,08,09,03,35,19.30
2018,08,09,03,36,19.30
2018,08,09,03,37,19.30
2018,08,09,03,38,19.30
2018,08,09,03,39,19.30
2018,08,09,03,40,19.30
2018,08,09,03,41,19.30
2018,08,09,03,42,19.30
2018,08,09,03,43,19.30
2018,08,09,03,44,19.30
2018,08,09,03,45,19.30
2018,08,09,03,46,19.20
2018,08,09,03,47,19.20
2018,08,09,03,48,19.20
2018,08,09,03,49,19.20
2018,08,09,03,50,19.20
2018,08,09,03,51,19.10
2018,08,09,03,52,19.10
2018,08,09,03,53,19.10
2018,08,09,03,54,19.10
2018,08,09,03,55,19.10
2018,08,09,03,56,19.10
2018,08,09,03,57,19.10
2018,08,09,03,58,19.10
2018,08,09,03,59,19.10
2018,08,09,04,00,19.10
2018,08,09,04,01,19.10
2018,08,09,04,02,19.00
2018,08,09,04,03,19.00
2018,08,09,04,04,19.00
2018,08,09,04,05,18.90
2018,08,09,04,06,18.90
2018,08,09,04,07,18.90
2018,08,09,04,08,18.90
2018,08,09,04,09,18.90
2018,08,09,04,10,18.90
2018,08,09,04,11,18.90
2018,08,09,04,12,18.80
2018,08,09,04,13,18.80
2018,08,09,04,14,18.80
2018,08,09,04,15,18.80
2018,08,09,04,16,18.80
2018,08,09,04,17,18.80
2018,08,09,04,18,18.80
2018,08,09,04,19,18.80
2018,08,09,04,20,18.80
2018,08,09,04,21,18.80
2018,08,09,04,22,18.80
2018,08,09,04,23,18.80
2018,08,09,04,24,18.80
2018,08,09,04,25,18.80
2018,08,09,04,26,18.80
2018,08,09,04,27,18.80
2018,08,09,04,28,18.80
2018,08,09,04,29,18.80
2018,08,09,04,30,18.80
2018,08,09,04,31,18.80
2018,08,09,04,32,18.80
2018,08,09,04,33,18.80
2018,08,09,04,34,18.70
2018,08,09,04,35,18.70
2018,08,09,04,36,18.70
2018,08,09,04,37,18.70
2018,08,09,04,38,18.70
2018,08,09,04,39,18.60
2018,08,09,04,40,18.60
2018,08,09,04,41,18.60
2018,08,09,04,42,18.50
2018,08,09,04,43,18.50
2018,08,09,04,44,18.40
2018,08,09,04,45,18.40
2018,08,09,04,46,18.40
2018,08,09,04,47,18.40
2018,08,09,04,48,18.40
2018,08,09,04,49,18.40
2018,08,09,04,50,18.30
2018,08,09,04,51,18.40
2018,08,09,04,52,18.30
2018,08,09,04,53,18.30
2018,08,09,04,54,18.30
2018,08,09,04,55,18.30
2018,08,09,04,56,18.30
2018,08,09,04,57,18.30
2018,08,09,04,58,18.30
2018,08,09,04,59,18.30
2018,08,09,05,00,18.30
2018,08,09,05,01,18.30
2018,08,09,05,02,18.30
2018,08,09,05,03,18.30
2018,08,09,05,04,18.30
2018,08,09,05,05,18.30
2018,08,09,05,06,18.30
2018,08,09,05,07,18.20
2018,08,09,05,08,18.20
2018,08,09,05,09,18.20
2018,08,09,05,10,18.20
2018,08,09,05,11,18.20
2018,08,09,05,12,18.20
2018,08,09,05,13,18.20
2018,08,09,05,14,18.20
2018,08,09,05,15,18.10
2018,08,09,05,16,18.10
2018,08,09,05,17,18.10
2018,08,09,05,18,18.10
2018,08,09,05,19,18.10
2018,08,09,05,20,18.10
2018,08,09,05,21,18.10
2018,08,09,05,22,18.00
2018,08,09,05,23,18.10
2018,08,09,05,24,18.10
2018,08,09,05,25,18.10
2018,08,09,05,26,18.10
2018,08,09,05,27,18.10
2018,08,09,05,28,18.10
2018,08,09,05,29,18.10
2018,08,09,05,30,18.10
2018,08,09,05,31,18.10
2018,08,09,05,32,18.10
2018,08,09,05,33,18.10
2018,08,09,05,34,18.10
2018,08,09,05,35,18.00
2018,08,09,05,36,18.00
2018,08,09,05,37,18.00
2018,08,09,05,38,18.00
2018,08,09,05,39,18.00
2018,08,09,05,40,18.00
2018,08,09,05,41,18.00
2018,08,09,05,42,18.10
2018,08,09,05,43,18.10
2018,08,09,05,44,18.10
2018,08,09,05,45,18.10
2018,08,09,05,46,18.10
2018,08,09,05,47,18.00
2018,08,09,05,48,18.00
2018,08,09,05,49,18.00
2018,08,09,05,50,18.00
2018,08,09,05,51,18.00
2018,08,09,05,52,18.00
2018,08,09,05,53,18.10
2018,08,09,05,54,18.10
2018,08,09,05,55,18.10
2018,08,09,05,56,18.10
2018,08,09,05,57,18.00
2018,08,09,05,58,18.00
2018,08,09,05,59,18.00
2018,08,09,06,00,18.00
2018,08,09,06,01,18.00
2018,08,09,06,02,18.00
2018,08,09,06,03,18.00
2018,08,09,06,04,18.00
2018,08,09,06,05,18.00
2018,08,09,06,06,17.90
2018,08,09,06,07,17.90
2018,08,09,06,08,17.90
2018,08,09,06,09,17.90
2018,08,09,06,10,17.90
2018,08,09,06,11,17.90
2018,08,09,06,12,17.90
2018,08,09,06,13,17.90
2018,08,09,06,14,17.90
2018,08,09,06,15,17.90
2018,08,09,06,16,17.90
2018,08,09,06,17,17.90
2018,08,09,06,18,17.90
2018,08,09,06,19,17.90
2018,08,09,06,20,17.90
2018,08,09,06,21,17.90
2018,08,09,06,22,17.90
2018,08,09,06,23,17.90
2018,08,09,06,24,17.90
2018,08,09,06,25,17.90
2018,08,09,06,26,17.90
2018,08,09,06,27,17.90
2018,08,09,06,28,17.90
2018,08,09,06,29,17.90
2018,08,09,06,30,17.90
2018,08,09,06,31,17.90
2018,08,09,06,32,17.90
2018,08,09,06,33,17.90
2018,08,09,06,34,17.90
2018,08,09,06,35,17.90
2018,08,09,06,36,17.90
2018,08,09,06,37,17.90
2018,08,09,06,38,18.00
2018,08,09,06,39,18.00
2018,08,09,06,40,18.10
2018,08,09,06,41,18.10
2018,08,09,06,42,18.10
2018,08,09,06,43,18.10
2018,08,09,06,44,18.10
2018,08,09,06,45,18.10
2018,08,09,06,46,18.20
2018,08,09,06,47,18.20
2018,08,09,06,48,18.20
2018,08,09,06,49,18.20
2018,08,09,06,50,18.20
2018,08,09,06,51,18.30
2018,08,09,06,52,18.30
2018,08,09,06,53,18.30
2018,08,09,06,54,18.40
2018,08,09,06,55,18.40
2018,08,09,06,56,18.40
2018,08,09,06,57,18.40
2018,08,09,06,58,18.40
2018,08,09,06,59,18.50
2018,08,09,07,00,18.50
2018,08,09,07,01,18.60
2018,08,09,07,02,18.60
2018,08,09,07,03,18.60
2018,08,09,07,04,18.60
2018,08,09,07,05,18.70
2018,08,09,07,06,18.70
2018,08,09,07,07,18.80
2018,08,09,07,08,18.80
2018,08,09,07,09,18.80
2018,08,09,07,10,18.90
2018,08,09,07,11,18.90
2018,08,09,07,12,19.00
2018,08,09,07,13,19.00
2018,08,09,07,14,19.00
2018,08,09,07,15,19.10
2018,08,09,07,16,19.10
2018,08,09,07,17,19.20
2018,08,09,07,18,19.20
2018,08,09,07,19,19.30
2018,08,09,07,20,19.30
2018,08,09,07,21,19.30
2018,08,09,07,22,19.40
2018,08,09,07,23,19.40
2018,08,09,07,24,19.40
2018,08,09,07,25,19.50
2018,08,09,07,26,19.50
2018,08,09,07,27,19.60
2018,08,09,07,28,19.60
2018,08,09,07,29,19.70
2018,08,09,07,30,19.70
2018,08,09,07,31,19.80
2018,08,09,07,32,19.80
2018,08,09,07,33,19.80
2018,08,09,07,34,19.90
2018,08,09,07,35,19.90
2018,08,09,07,36,20.00
2018,08,09,07,37,20.10
2018,08,09,07,38,20.10
2018,08,09,07,39,20.20
2018,08,09,07,40,20.20
2018,08,09,07,41,20.20
2018,08,09,07,42,20.30
2018,08,09,07,43,20.30
2018,08,09,07,44,20.40
2018,08,09,07,45,20.40
2018,08,09,07,46,20.50
2018,08,09,07,47,20.60
2018,08,09,07,48,20.70
2018,08,09,07,49,20.90
2018,08,09,07,50,21.10
2018,08,09,07,51,21.20
2018,08,09,07,52,21.40
2018,08,09,07,53,21.50
2018,08,09,07,54,21.70
2018,08,09,07,55,21.80
2018,08,09,07,56,22.00
2018,08,09,07,57,22.10
2018,08,09,07,58,22.20
2018,08,09,07,59,22.30
2018,08,09,08,00,22.40
2018,08,09,08,01,22.40
2018,08,09,08,02,22.50
2018,08,09,08,03,22.50
2018,08,09,08,04,22.60
2018,08,09,08,05,22.70
2018,08,09,08,06,22.80
2018,08,09,08,07,22.90
2018,08,09,08,08,22.90
2018,08,09,08,09,23.00
2018,08,09,08,10,23.10
2018,08,09,08,11,23.10
2018,08,09,08,12,23.20
2018,08,09,08,13,23.30
2018,08,09,08,14,23.30
2018,08,09,08,15,23.40
2018,08,09,08,16,23.40
2018,08,09,08,17,23.50
2018,08,09,08,18,23.50
2018,08,09,08,19,23.50
2018,08,09,08,20,23.50
2018,08,09,08,21,23.50
2018,08,09,08,22,23.50
2018,08,09,08,23,23.40
2018,08,09,08,24,23.40
2018,08,09,08,25,23.40
2018,08,09,08,26,23.40
2018,08,09,08,27,23.40
2018,08,09,08,28,23.40
2018,08,09,08,29,23.40
2018,08,09,08,30,23.40
2018,08,09,08,31,23.40
2018,08,09,08,32,23.30
2018,08,09,08,33,23.40
2018,08,09,08,34,23.40
2018,08,09,08,35,23.40
2018,08,09,08,36,23.50
2018,08,09,08,37,23.50
2018,08,09,08,38,23.60
2018,08,09,08,39,23.60
2018,08,09,08,40,23.60
2018,08,09,08,41,23.60
2018,08,09,08,42,23.60
2018,08,09,08,43,23.70
2018,08,09,08,44,23.80
2018,08,09,08,45,23.80
2018,08,09,08,46,23.80
2018,08,09,08,47,23.90
2018,08,09,08,48,24.00
2018,08,09,08,49,24.00
2018,08,09,08,50,24.10
2018,08,09,08,51,24.10
2018,08,09,08,52,24.10
2018,08,09,08,53,24.00
2018,08,09,08,54,24.00
2018,08,09,08,55,24.00
2018,08,09,08,56,24.00
2018,08,09,08,57,24.00
2018,08,09,08,58,24.10
2018,08,09,08,59,24.20
2018,08,09,09,00,24.20
2018,08,09,09,01,24.30
2018,08,09,09,02,24.30
2018,08,09,09,03,24.30
2018,08,09,09,04,24.20
2018,08,09,09,05,24.20
2018,08,09,09,06,24.10
2018,08,09,09,07,24.10
2018,08,09,09,08,24.10
2018,08,09,09,09,24.10
2018,08,09,09,10,24.20
2018,08,09,09,11,24.30
2018,08,09,09,12,24.30
2018,08,09,09,13,24.30
2018,08,09,09,14,24.20
2018,08,09,09,15,24.10
2018,08,09,09,16,24.10
2018,08,09,09,17,24.10
2018,08,09,09,18,24.10
2018,08,09,09,19,24.10
2018,08,09,09,20,24.10
2018,08,09,09,21,24.00
2018,08,09,09,22,24.10
2018,08,09,09,23,24.00
2018,08,09,09,24,24.00
2018,08,09,09,25,24.00
2018,08,09,09,26,24.00
2018,08,09,09,27,24.00
2018,08,09,09,28,24.10
2018,08,09,09,29,24.20
2018,08,09,09,30,24.20
2018,08,09,09,31,24.20
2018,08,09,09,32,24.20
2018,08,09,09,33,24.20
2018,08,09,09,34,24.10
2018,08,09,09,35,24.00
2018,08,09,09,36,24.00
2018,08,09,09,37,23.90
2018,08,09,09,38,23.90
2018,08,09,09,39,23.90
2018,08,09,09,40,23.90
2018,08,09,09,41,23.90
2018,08,09,09,42,23.90
2018,08,09,09,43,23.90
2018,08,09,09,44,24.00
2018,08,09,09,45,24.00
2018,08,09,09,46,24.00
2018,08,09,09,47,24.00
2018,08,09,09,48,24.00
2018,08,09,09,49,24.10
2018,08,09,09,50,24.20
2018,08,09,09,51,24.30
2018,08,09,09,52,24.30
2018,08,09,09,53,24.40
2018,08,09,09,54,24.50
2018,08,09,09,55,24.50
2018,08,09,09,56,24.50
2018,08,09,09,57,24.40
2018,08,09,09,58,24.40
2018,08,09,09,59,24.30
2018,08,09,10,00,24.30
2018,08,09,10,01,24.30
2018,08,09,10,02,24.30
2018,08,09,10,03,24.30
2018,08,09,10,04,24.30
2018,08,09,10,05,24.20
2018,08,09,10,06,24.20
2018,08,09,10,07,24.20
2018,08,09,10,08,24.20
2018,08,09,10,09,24.20
2018,08,09,10,10,24.20
2018,08,09,10,11,24.20
2018,08,09,10,12,24.20
2018,08,09,10,13,24.20
2018,08,09,10,14,24.20
2018,08,09,10,15,24.20
2018,08,09,10,16,24.20
2018,08,09,10,17,24.30
2018,08,09,10,18,24.40
2018,08,09,10,19,24.40
2018,08,09,10,20,24.50
2018,08,09,10,21,24.70
2018,08,09,10,22,24.80
2018,08,09,10,23,24.90
2018,08,09,10,24,25.00
2018,08,09,10,25,24.90
2018,08,09,10,26,24.90
2018,08,09,10,27,24.80
2018,08,09,10,28,24.80
2018,08,09,10,29,24.70
2018,08,09,10,30,24.60
2018,08,09,10,31,24.70
2018,08,09,10,32,24.70
2018,08,09,10,33,24.80
2018,08,09,10,34,24.80
2018,08,09,10,35,24.80
2018,08,09,10,36,24.90
2018,08,09,10,37,24.90
2018,08,09,10,38,24.90
2018,08,09,10,39,24.90
2018,08,09,10,40,24.90
2018,08,09,10,41,24.90
2018,08,09,10,42,25.00
2018,08,09,10,43,25.00
2018,08,09,10,44,25.00
2018,08,09,10,45,25.00
2018,08,09,10,46,25.00
2018,08,09,10,47,24.90
2018,08,09,10,48,24.90
2018,08,09,10,49,24.90
2018,08,09,10,50,24.90
2018,08,09,10,51,24.90
2018,08,09,10,52,24.90
2018,08,09,10,53,25.00
2018,08,09,10,54,25.00
2018,08,09,10,55,25.00
2018,08,09,10,56,25.00
2018,08,09,10,57,24.90
2018,08,09,10,58,24.90
2018,08,09,10,59,24.90
2018,08,09,11,00,25.00
2018,08,09,11,01,25.10
2018,08,09,11,02,25.20
2018,08,09,11,03,25.30
2018,08,09,11,04,25.30
2018,08,09,11,05,25.30
2018,08,09,11,06,25.20
2018,08,09,11,07,25.10
2018,08,09,11,08,25.00
2018,08,09,11,09,24.90
2018,08,09,11,10,24.90
2018,08,09,11,11,24.90
2018,08,09,11,12,24.90
2018,08,09,11,13,24.90
2018,08,09,11,14,25.00
2018,08,09,11,15,25.10
2018,08,09,11,16,25.30
2018,08,09,11,17,25.30
2018,08,09,11,18,25.40
2018,08,09,11,19,25.60
2018,08,09,11,20,25.60
2018,08,09,11,21,25.60
2018,08,09,11,22,25.50
2018,08,09,11,23,25.50
2018,08,09,11,24,25.40
2018,08,09,11,25,25.30
2018,08,09,11,26,25.20
2018,08,09,11,27,25.20
2018,08,09,11,28,25.30
2018,08,09,11,29,25.40
2018,08,09,11,30,25.40
2018,08,09,11,31,25.40
2018,08,09,11,32,25.40
2018,08,09,11,33,25.40
2018,08,09,11,34,25.50
2018,08,09,11,35,25.60
2018,08,09,11,36,25.60
2018,08,09,11,37,25.70
2018,08,09,11,38,25.70
2018,08,09,11,39,25.70
2018,08,09,11,40,25.70
2018,08,09,11,41,25.70
2018,08,09,11,42,25.70
2018,08,09,11,43,25.80
2018,08,09,11,44,25.90
2018,08,09,11,45,26.00
2018,08,09,11,46,26.00
2018,08,09,11,47,26.00
2018,08,09,11,48,26.00
2018,08,09,11,49,25.90
2018,08,09,11,50,26.00
2018,08,09,11,51,26.00
2018,08,09,11,52,26.00
2018,08,09,11,53,26.10
2018,08,09,11,54,26.20
2018,08,09,11,55,26.30
2018,08,09,11,56,26.40
2018,08,09,11,57,26.40
2018,08,09,11,58,26.30
2018,08,09,11,59,26.20
2018,08,09,12,00,26.20
2018,08,09,12,01,26.10
2018,08,09,12,02,26.10
2018,08,09,12,03,25.90
2018,08,09,12,04,25.70
2018,08,09,12,05,25.60
2018,08,09,12,06,25.50
2018,08,09,12,07,25.40
2018,08,09,12,08,25.40
2018,08,09,12,09,25.30
2018,08,09,12,10,25.30
2018,08,09,12,11,25.30
2018,08,09,12,12,25.30
2018,08,09,12,13,25.40
2018,08,09,12,14,25.40
2018,08,09,12,15,25.40
2018,08,09,12,16,25.50
2018,08,09,12,17,25.60
2018,08,09,12,18,25.70
2018,08,09,12,19,25.80
2018,08,09,12,20,25.90
2018,08,09,12,21,25.90
2018,08,09,12,22,25.90
2018,08,09,12,23,25.90
2018,08,09,12,24,25.90
2018,08,09,12,25,25.90
2018,08,09,12,26,25.90
2018,08,09,12,27,25.90
2018,08,09,12,28,26.00
2018,08,09,12,29,26.10
2018,08,09,12,30,26.20
2018,08,09,12,31,26.20
2018,08,09,12,32,26.20
2018,08,09,12,33,26.20
2018,08,09,12,34,26.10
2018,08,09,12,35,26.00
2018,08,09,12,36,25.90
2018,08,09,12,37,25.90
2018,08,09,12,38,25.90
2018,08,09,12,39,26.00
2018,08,09,12,40,26.10
2018,08,09,12,41,26.10
2018,08,09,12,42,26.20
2018,08,09,12,43,26.20
2018,08,09,12,44,26.30
2018,08,09,12,45,26.40
2018,08,09,12,46,26.50
2018,08,09,12,47,26.60
2018,08,09,12,48,26.60
2018,08,09,12,49,26.60
2018,08,09,12,50,26.70
2018,08,09,12,51,26.70
2018,08,09,12,52,26.80
2018,08,09,12,53,26.80
2018,08,09,12,54,26.80
2018,08,09,12,55,26.70
2018,08,09,12,56,26.80
2018,08,09,12,57,26.80
2018,08,09,12,58,26.80
2018,08,09,12,59,26.80
2018,08,09,13,00,26.80
2018,08,09,13,01,26.80
2018,08,09,13,02,26.70
2018,08,09,13,03,26.70
2018,08,09,13,04,26.70
2018,08,09,13,05,26.70
2018,08,09,13,06,26.60
2018,08,09,13,07,26.60
2018,08,09,13,08,26.60
2018,08,09,13,09,26.60
2018,08,09,13,10,26.60
2018,08,09,13,11,26.50
2018,08,09,13,12,26.50
2018,08,09,13,13,26.60
2018,08,09,13,14,26.60
2018,08,09,13,15,26.60
2018,08,09,13,16,26.60
2018,08,09,13,17,26.50
2018,08,09,13,18,26.50
2018,08,09,13,19,26.50
2018,08,09,13,20,26.50
2018,08,09,13,21,26.50
2018,08,09,13,22,26.60
2018,08,09,13,23,26.60
2018,08,09,13,24,26.70
2018,08,09,13,25,26.70
2018,08,09,13,26,26.60
2018,08,09,13,27,26.50
2018,08,09,13,28,26.40
2018,08,09,13,29,26.40
2018,08,09,13,30,26.40
2018,08,09,13,31,26.50
2018,08,09,13,32,26.50
2018,08,09,13,33,26.50
2018,08,09,13,34,26.50
2018,08,09,13,35,26.40
2018,08,09,13,36,26.40
2018,08,09,13,37,26.40
2018,08,09,13,38,26.40
2018,08,09,13,39,26.40
2018,08,09,13,40,26.30
2018,08,09,13,41,26.30
2018,08,09,13,42,26.30
2018,08,09,13,43,26.30
2018,08,09,13,44,26.40
2018,08,09,13,45,26.50
2018,08,09,13,46,26.60
2018,08,09,13,47,26.70
2018,08,09,13,48,26.70
2018,08,09,13,49,26.70
2018,08,09,13,50,26.70
2018,08,09,13,51,26.60
2018,08,09,13,52,26.50
2018,08,09,13,53,26.50
2018,08,09,13,54,26.50
2018,08,09,13,55,26.50
2018,08,09,13,56,26.40
2018,08,09,13,57,26.40
2018,08,09,13,58,26.30
2018,08,09,13,59,26.30
2018,08,09,14,00,26.30
2018,08,09,14,01,26.30
2018,08,09,14,02,26.40
2018,08,09,14,03,26.40
2018,08,09,14,04,26.40
2018,08,09,14,05,26.40
2018,08,09,14,06,26.40
2018,08,09,14,07,26.40
2018,08,09,14,08,26.50
2018,08,09,14,09,26.50
2018,08,09,14,10,26.60
2018,08,09,14,11,26.60
2018,08,09,14,12,26.70
2018,08,09,14,13,26.70
2018,08,09,14,14,26.60
2018,08,09,14,15,26.50
2018,08,09,14,16,26.40
2018,08,09,14,17,26.30
2018,08,09,14,18,26.20
2018,08,09,14,19,26.20
2018,08,09,14,20,26.20
2018,08,09,14,21,26.20
2018,08,09,14,22,26.30
2018,08,09,14,23,26.40
2018,08,09,14,24,26.50
2018,08,09,14,25,26.60
2018,08,09,14,26,26.70
2018,08,09,14,27,26.70
2018,08,09,14,28,26.70
2018,08,09,14,29,26.80
2018,08,09,14,30,26.80
2018,08,09,14,31,26.80
2018,08,09,14,32,26.90
2018,08,09,14,33,26.90
2018,08,09,14,34,26.90
2018,08,09,14,35,26.90
2018,08,09,14,36,26.90
2018,08,09,14,37,26.90
2018,08,09,14,38,27.00
2018,08,09,14,39,27.10
2018,08,09,14,40,27.20
2018,08,09,14,41,27.20
2018,08,09,14,42,27.30
2018,08,09,14,43,27.30
2018,08,09,14,44,27.30
2018,08,09,14,45,27.30
2018,08,09,14,46,27.30
2018,08,09,14,47,27.30
2018,08,09,14,48,27.30
2018,08,09,14,49,27.40
2018,08,09,14,50,27.40
2018,08,09,14,51,27.40
2018,08,09,14,52,27.40
2018,08,09,14,53,27.40
2018,08,09,14,54,27.30
2018,08,09,14,55,27.30
2018,08,09,14,56,27.30
2018,08,09,14,57,27.40
2018,08,09,14,58,27.40
2018,08,09,14,59,27.40
2018,08,09,15,00,27.30
2018,08,09,15,01,27.40
2018,08,09,15,02,27.40
2018,08,09,15,03,27.50
2018,08,09,15,04,27.60
2018,08,09,15,05,27.70
2018,08,09,15,06,27.70
2018,08,09,15,07,27.70
2018,08,09,15,08,27.70
2018,08,09,15,09,27.70
2018,08,09,15,10,27.60
2018,08,09,15,11,27.60
2018,08,09,15,12,27.50
2018,08,09,15,13,27.50
2018,08,09,15,14,27.40
2018,08,09,15,15,27.40
2018,08,09,15,16,27.40
2018,08,09,15,17,27.40
2018,08,09,15,18,27.40
2018,08,09,15,19,27.40
2018,08,09,15,20,27.40
2018,08,09,15,21,27.40
2018,08,09,15,22,27.50
2018,08,09,15,23,27.50
2018,08,09,15,24,27.50
2018,08,09,15,25,27.50
2018,08,09,15,26,27.50
2018,08,09,15,27,27.50
2018,08,09,15,28,27.50
2018,08,09,15,29,27.60
2018,08,09,15,30,27.70
2018,08,09,15,31,27.70
2018,08,09,15,32,27.80
2018,08,09,15,33,27.80
2018,08,09,15,34,27.70
2018,08,09,15,35,27.70
2018,08,09,15,36,27.60
2018,08,09,15,37,27.70
2018,08,09,15,38,27.70
2018,08,09,15,39,27.70
2018,08,09,15,40,27.60
2018,08,09,15,41,27.60
2018,08,09,15,42,27.60
2018,08,09,15,43,27.50
2018,08,09,15,44,27.50
2018,08,09,15,45,27.60
2018,08,09,15,46,27.60
2018,08,09,15,47,27.60
2018,08,09,15,48,27.70
2018,08,09,15,49,27.70
2018,08,09,15,50,27.80
2018,08,09,15,51,27.90
2018,08,09,15,52,27.90
2018,08,09,15,53,28.00
2018,08,09,15,54,28.10
2018,08,09,15,55,28.10
2018,08,09,15,56,28.00
2018,08,09,15,57,27.90
2018,08,09,15,58,27.90
2018,08,09,15,59,27.80
2018,08,09,16,00,27.70
2018,08,09,16,01,27.60
2018,08,09,16,02,27.60
2018,08,09,16,03,27.50
2018,08,09,16,04,27.40
2018,08,09,16,05,27.30
2018,08,09,16,06,27.30
2018,08,09,16,07,27.20
2018,08,09,16,08,27.20
2018,08,09,16,09,27.10
2018,08,09,16,10,27.10
2018,08,09,16,11,27.10
2018,08,09,16,12,27.10
2018,08,09,16,13,27.20
2018,08,09,16,14,27.30
2018,08,09,16,15,27.30
2018,08,09,16,16,27.40
2018,08,09,16,17,27.50
2018,08,09,16,18,27.50
2018,08,09,16,19,27.60
2018,08,09,16,20,27.60
2018,08,09,16,21,27.70
2018,08,09,16,22,27.70
2018,08,09,16,23,27.70
2018,08,09,16,24,27.70
2018,08,09,16,25,27.70
2018,08,09,16,26,27.80
2018,08,09,16,27,27.90
2018,08,09,16,28,27.90
2018,08,09,16,29,28.00
2018,08,09,16,30,28.00
2018,08,09,16,31,28.10
2018,08,09,16,32,28.10
2018,08,09,16,33,28.10
2018,08,09,16,34,28.00
2018,08,09,16,35,28.00
2018,08,09,16,36,28.10
2018,08,09,16,37,28.10
2018,08,09,16,38,28.20
2018,08,09,16,39,28.20
2018,08,09,16,40,28.20
2018,08,09,16,41,28.10
2018,08,09,16,42,28.10
2018,08,09,16,43,28.20
2018,08,09,16,44,28.20
2018,08,09,16,45,28.30
2018,08,09,16,46,28.30
2018,08,09,16,47,28.30
2018,08,09,16,48,28.40
2018,08,09,16,49,28.40
2018,08,09,16,50,28.50
2018,08,09,16,51,28.60
2018,08,09,16,52,28.70
2018,08,09,16,53,28.80
2018,08,09,16,54,28.80
2018,08,09,16,55,28.90
2018,08,09,16,56,28.90
2018,08,09,16,57,28.90
2018,08,09,16,58,28.90
2018,08,09,16,59,28.80
2018,08,09,17,00,28.90
2018,08,09,17,01,28.90
2018,08,09,17,02,28.90
2018,08,09,17,03,28.70
2018,08,09,17,04,28.50
2018,08,09,17,05,28.40
2018,08,09,17,06,28.20
2018,08,09,17,07,28.00
2018,08,09,17,08,27.90
2018,08,09,17,09,27.90
2018,08,09,17,10,27.90
2018,08,09,17,11,27.90
2018,08,09,17,12,27.90
2018,08,09,17,13,27.70
2018,08,09,17,14,27.60
2018,08,09,17,15,27.50
2018,08,09,17,16,27.50
2018,08,09,17,17,27.50
2018,08,09,17,18,27.60
2018,08,09,17,19,27.70